"Pseudo-MPEC" for P10Iju3

Created 2018 Jul 17 17:18:09 UT using Find_Orb

Click here for an explanation of pseudo-MPECs

 
 Astrometry: 
     P10Iju3  C2018 07 106NAstrometryq+m(Z0E'jGfp,w+X^p`ZrTsi6OrjM.?DnfL(PK/@F51
     P10Iju3  C2018 07 10LOjYMvk1lQE_r-PH%redacted;@ug9?5see%F=UKOx0@W]pHHTnZF51
     P10Iju3  C2018 07 10mfgC4FcgW]#7)tFTUvRepcH@fp\tg+)es))]J:t'Q#x1WNBNEOCPF51

Station data:
(F51) Pan-STARRS 1, Haleakala  (N20.707235 W156.255910)  US/Hawaii.
   Observers N. Primak, A. Schultz, S. Watters, J. Thiel, T. Goggia. Measurer
   PS1 Science Consortium. 1.8-m Ritchey-Chrétien + CCD.

Orbital elements:  P10Iju3
   Perihelion 2018 Dec 12.747599 +/- 55.1 TT = 17:56:32 (JD 2458465.247599)
Epoch 2018 Jul 11.0 TT = JDT 2458310.5   Earth MOID: 0.0181   AutoNEOCP
M 196.83639 +/- 90                  (J2000 ecliptic)
n   1.05438535 +/- 0.615            Peri.  162.41980 +/- 90
a   0.95602622 +/- 0.372            Node   292.78418 +/- 29
e   0.0875116 +/- 0.268             Incl.    6.54117 +/- 27
P   0.93/341.42d           H 27.0   G  0.15   U 12.4  SR
q 0.87236274 +/- 0.364    Q 1.03968970 +/- 19.2
From 3 observations 2018 July 10 (44.7 min); mean residual 0".08
Residuals in arcseconds: 
180710 F51  .03-  .05+    180710 F51  .08+  .14-    180710 F51  .06-  .09+    

Ephemerides (geocentric):
Date (UTC) HH   RA              Dec         delta   r     elong  mag " sig PA
---- -- -- --  -------------   -----------  ------ ------ -----  --- ---- ---
2018 07 17 17  21 34 40.579   +01 25 49.53  .02084 1.0336 145.3 20.1  66d  16
2018 07 17 18  21 34 12.445   +01 38 12.25  .02082 1.0335 145.3 20.1  66d  16
2018 07 17 19  21 33 44.247   +01 50 36.26  .02081 1.0335 145.3 20.1  66d  16
2018 07 17 20  21 33 15.984   +02 03 01.54  .02079 1.0335 145.3 20.1  66d  16
2018 07 17 21  21 32 47.657   +02 15 28.05  .02077 1.0335 145.2 20.0  66d  16
2018 07 17 22  21 32 19.265   +02 27 55.78  .02075 1.0334 145.2 20.0  66d  16
2018 07 17 23  21 31 50.808   +02 40 24.69  .02073 1.0334 145.2 20.0  66d  16
2018 07 18 00  21 31 22.288   +02 52 54.75  .02071 1.0334 145.2 20.0  66d  16
2018 07 18 01  21 30 53.703   +03 05 25.94  .02070 1.0334 145.1 20.0  66d  16
2018 07 18 02  21 30 25.054   +03 17 58.24  .02068 1.0333 145.1 20.0  66d  16
2018 07 18 03  21 29 56.341   +03 30 31.60  .02066 1.0333 145.1 20.0  66d  16
2018 07 18 04  21 29 27.565   +03 43 06.01  .02065 1.0333 145.0 20.0  66d  16
2018 07 18 05  21 28 58.725   +03 55 41.43  .02063 1.0333 145.0 20.0  66d  16
2018 07 18 06  21 28 29.822   +04 08 17.84  .02061 1.0333 145.0 20.0  66d  16
2018 07 18 07  21 28 00.855   +04 20 55.20  .02060 1.0332 144.9 20.0  66d  16
2018 07 18 08  21 27 31.825   +04 33 33.49  .02058 1.0332 144.9 20.0  66d  16
2018 07 18 09  21 27 02.733   +04 46 12.67  .02057 1.0332 144.8 20.0  66d  16
2018 07 18 10  21 26 33.577   +04 58 52.71  .02056 1.0332 144.8 20.0  66d  16
2018 07 18 11  21 26 04.359   +05 11 33.60  .02054 1.0331 144.7 20.0  66d  16
2018 07 18 12  21 25 35.078   +05 24 15.28  .02053 1.0331 144.7 20.0  66d  16
2018 07 18 13  21 25 05.736   +05 36 57.74  .02052 1.0331 144.7 20.0  66d  16
2018 07 18 14  21 24 36.330   +05 49 40.94  .02050 1.0331 144.6 20.0  66d  16
2018 07 18 15  21 24 06.863   +06 02 24.85  .02049 1.0330 144.5 20.0  66d  16
2018 07 18 16  21 23 37.335   +06 15 09.44  .02048 1.0330 144.5 20.0  66d  16
2018 07 18 17  21 23 07.744   +06 27 54.67  .02047 1.0330 144.4 20.0  66d  16
2018 07 18 18  21 22 38.092   +06 40 40.52  .02046 1.0330 144.4 20.0  66d  16
2018 07 18 19  21 22 08.379   +06 53 26.96  .02045 1.0330 144.3 20.0  66d  16
2018 07 18 20  21 21 38.605   +07 06 13.94  .02044 1.0329 144.3 20.0  66d  16
2018 07 18 21  21 21 08.770   +07 19 01.44  .02043 1.0329 144.2 20.0  66d  16
2018 07 18 22  21 20 38.874   +07 31 49.43  .02042 1.0329 144.1 20.0  66d  16
2018 07 18 23  21 20 08.918   +07 44 37.87  .02041 1.0329 144.1 20.0  66d  16
2018 07 19 00  21 19 38.901   +07 57 26.73  .02040 1.0328 144.0 20.0  66d  16
2018 07 19 01  21 19 08.825   +08 10 15.98  .02039 1.0328 143.9 20.0  66d  16
2018 07 19 02  21 18 38.688   +08 23 05.57  .02038 1.0328 143.9 20.0  66d  16
2018 07 19 03  21 18 08.492   +08 35 55.49  .02038 1.0328 143.8 20.0  66d  16
2018 07 19 04  21 17 38.236   +08 48 45.70  .02037 1.0327 143.7 20.0  66d  16
2018 07 19 05  21 17 07.921   +09 01 36.16  .02036 1.0327 143.6 20.0  66d  16
2018 07 19 06  21 16 37.548   +09 14 26.83  .02036 1.0327 143.6 20.1  66d  15
2018 07 19 07  21 16 07.115   +09 27 17.69  .02035 1.0327 143.5 20.1  66d  15
2018 07 19 08  21 15 36.623   +09 40 08.71  .02034 1.0326 143.4 20.1  66d  15
2018 07 19 09  21 15 06.073   +09 52 59.84  .02034 1.0326 143.3 20.1  66d  15
2018 07 19 10  21 14 35.466   +10 05 51.05  .02033 1.0326 143.2 20.1  66d  15
2018 07 19 11  21 14 04.800   +10 18 42.31  .02033 1.0326 143.1 20.1  66d  15
2018 07 19 12  21 13 34.076   +10 31 33.59  .02033 1.0325 143.1 20.1  66d  15
2018 07 19 13  21 13 03.295   +10 44 24.85  .02032 1.0325 143.0 20.1  66d  15
2018 07 19 14  21 12 32.457   +10 57 16.05  .02032 1.0325 142.9 20.1  65d  15
2018 07 19 15  21 12 01.561   +11 10 07.16  .02032 1.0325 142.8 20.1  65d  15
2018 07 19 16  21 11 30.609   +11 22 58.16  .02031 1.0324 142.7 20.1  65d  15